sat.trackr.live / text

‹ back to catalog

STARLINK-11625 [DTC]

NORAD 63109 · 2025-039F

PAYLOAD ACTIVE UNKNOWN

§ Identity

Operator
Country
US
Launch date
2025-02-27
Launch site
AFETR
Launch vehicle
Mass (kg)
RCS (m²)

Purposes: comms

External: N2YO · Heavens-Above · Gunter

§ Orbital elements

Epoch: 2026-09-20T22:58:33.120192Z

Period
91.67 min
Inclination
43.0009°
Eccentricity
0.0001688
Mean motion
15.70900881 rev/d
Perigee alt
355.2 km
Apogee alt
357.5 km
Semi-major
6,734.5 km
B*
9.6585e-4
RAAN
140.0452°
Arg perigee
257.5422°
Mean anomaly
102.5257°
Rev number
9,032

§ Raw data

STARLINK-11625 [DTC]1 63109U 25039F   26263.95732778  .00125696  00000+0  96585-3 0  99992 63109  43.0009 140.0452 0001688 257.5422 102.5257 15.70900881 90328

JSON: /api/v1/satellites/63109 · /tle

For live sub-satellite position, see the globe view (requires WebGL).

§ Visibility from observer

Set your observer location to see the next 7 days of passes ≥ 10°. The values pass through the URL so the page stays shareable.

No JS? Fill the form by hand. The geolocation button needs JavaScript.